This demonstration page uses our WeatherBlox Daily Observations layout. Learn more.

39.01783, -85.05884

Hourly Observations for August 10, 2018

Temp ( °F °C ) Dew Point ( °F °C ) Humidity (%) Winds ( mph kmh ) Pressure ( in mb ) Visibility ( mi km ) Precip ( " mm )
12:52 am 00:52 Clear 70 21.1 68 20 93 93 WSW 5 7 29.94 1014 10 16.09344 0 0
1:52 am 01:52 Partly Cloudy with Mist and Fog 67 19.4 67 19.4 100 100 SSW 3 6 29.94 1014 6 9.656064 0 0
2:52 am 02:52 Partly Cloudy 69 20.6 69 20.6 100 100 SSW 5 7 29.91 1013 8 12.874752 0 0
3:52 am 03:52 Mostly Cloudy 68 20 68 20 100 100 Calm 29.94 1014 9 14.484096 0 0
4:52 am 04:52 Cloudy 70 21.1 68 20 93 93 NW 3 6 29.94 1014 8 12.874752 0 0
5:52 am 05:52 Cloudy with Mist and Fog 67 19.4 67 19.4 100 100 SSW 5 7 29.94 1014 6 9.656064 0 0
6:52 am 06:52 Cloudy with Mist and Fog 68 20 68 20 100 100 Calm 29.94 1014 6 9.656064 0 0
7:52 am 07:52 Cloudy with Mist and Fog 69 20.6 69 20.6 100 100 S 6 9 29.94 1014 6 9.656064 0 0
8:52 am 08:52 Cloudy with Mist and Fog 72 22.2 71 21.7 97 97 Calm 29.94 1014 6 9.656064 0 0
9:52 am 09:52 Cloudy 76 24.4 71 21.7 85 85 W 7 11 29.94 1014 10 16.09344 0 0
10:52 am 10:52 Cloudy 77 25 71 21.7 82 82 WNW 6 9 29.97 1015 10 16.09344 0 0
11:52 am 11:52 Cloudy 80 26.7 71 21.7 74 74 Calm 29.97 1015 10 16.09344 0 0
12:52 pm 12:52 Mostly Cloudy 83 28.3 72 22.2 70 70 SSW 5 7 29.94 1014 10 16.09344 0 0
1:52 pm 13:52 Mostly Cloudy 84 28.9 72 22.2 67 67 W 8 13 29.94 1014 10 16.09344 0 0
2:52 pm 14:52 Mostly Cloudy 85 29.4 72 22.2 65 65 WSW 5 7 29.91 1013 10 16.09344 0 0
3:52 pm 15:52 Mostly Cloudy 86 30 71 21.7 61 61 WSW 6 9 29.88 1012 10 16.09344 0 0
4:52 pm 16:52 Partly Cloudy 85 29.4 72 22.2 65 65 SW 10 17 29.88 1012 10 16.09344 0 0
5:34 pm 17:34 Partly Cloudy with Nearby Thunderstorms 84 28.9 72 22.2 67 67 WSW 7 11 29.85 1011 10 16.09344 0 0
5:52 pm 17:52 Mostly Cloudy with Nearby Thunderstorms 85 29.4 71 21.7 63 63 SW 8 13 29.85 1011 10 16.09344 0 0
6:12 pm 18:12 Mostly Cloudy 85 29.4 71 21.7 63 63 SW 10 17 29.85 1011 10 16.09344 0 0
6:52 pm 18:52 Mostly Cloudy 83 28.3 71 21.7 67 67 SW 8 13 29.85 1011 10 16.09344 0 0
7:52 pm 19:52 Mostly Cloudy 82 27.8 70 21.1 67 67 SW 7 11 29.85 1011 10 16.09344 0 0
8:52 pm 20:52 Mostly Cloudy 79 26.1 71 21.7 77 77 SSW 6 9 29.88 1012 10 16.09344 0 0
9:52 pm 21:52 Mostly Clear 76 24.4 71 21.7 85 85 SSW 6 9 29.88 1012 10 16.09344 0 0
10:52 pm 22:52 Mostly Clear 75 23.9 72 22.2 90 90 SSW 7 11 29.91 1013 10 16.09344 0 0
11:52 pm 23:52 Mostly Cloudy 76 24.4 72 22.2 88 88 WSW 5 7 29.91 1013 10 16.09344 0 0

Powered by AerisWeather